Daviess Cnty AP, Washington,, IN

11:08 AM EDT on October 16, 2019 (GMT -0400)
Daviess County

Weather History for KDCY - August, 2019

Change the Weather History Date:

Tuesday, August 20, 2019

  Actual Average (KLWV) Record (KLWV)
Temperature  
Mean Temperature 77 °F -  
Max Temperature 86 °F 83 °F 95 °F (2010)
Min Temperature 68 °F 62 °F 54 °F (2012)
Cooling Degree Days 12    
Growing Degree Days 27 (Base 50)    
Moisture  
Dew Point 73 °F    
Average Humidity 93    
Maximum Humidity 100    
Minimum Humidity 69    
Precipitation  
Precipitation 0.57 in - - ()
Sea Level Pressure  
Sea Level Pressure 30.03 in    
Wind  
Wind Speed 3 mph (South)    
Max Wind Speed 23 mph    
Max Gust Speed 38 mph    
Visibility 8 miles    
Events Rain , Thunderstorm    
Averages and records for this station are not official NWS values.
T = Trace of Precipitation, MM = Missing Value Source: NWS Daily Summary

Daily Weather History Graph

Daily Weather History Graph

Search for Another Location

Airport or City:

Astronomy

Aug. 20, 2019 Rise Set
Actual Time 7:06 AM EDT 8:36 PM EDT
Civil Twilight 6:38 AM EDT 9:04 PM EDT
Nautical Twilight 6:05 AM EDT 9:37 PM EDT
Astronomical Twilight 5:29 AM EDT 10:13 PM EDT
Moon 11:27 PM EDT (8/20) 11:41 AM EDT (8/20)
Length of Visible Light 14h 25m
Length of Day
13h 29m
Waning Gibbous, 78% of the Moon is Illuminated
Aug 20
Waning Gibbous
Aug 23
Last Quarter
Aug 30
New
Sep 5
First Quarter
Sep 14
Full

Hourly Weather History & Observations

Time (EDT) Temp. Heat Index Dew Point Humidity Pressure Visibility Wind Dir Wind Speed Gust Speed Precip Events Conditions
12:15 AM 76.1 °F - 75.7 °F 99% 30.03 in 10.0 mi Calm Calm - N/A   Clear
12:35 AM 75.9 °F - 75.6 °F 99% 30.03 in 10.0 mi Calm Calm - N/A   Clear
12:55 AM 75.6 °F - 75.2 °F 99% 30.04 in 10.0 mi Calm Calm - N/A   Clear
1:15 AM 75.9 °F - 75.6 °F 99% 30.04 in 10.0 mi Calm Calm - N/A   Clear
1:35 AM 75.6 °F - 75.2 °F 99% 30.04 in 10.0 mi Calm Calm - N/A   Mostly Cloudy
1:55 AM 76.3 °F - 75.9 °F 99% 30.03 in 10.0 mi Calm Calm - N/A   Mostly Cloudy
2:15 AM 75.2 °F - 74.7 °F 98% 30.03 in 7.0 mi Calm Calm - N/A   Mostly Cloudy
2:35 AM 74.5 °F - 74.1 °F 99% 30.03 in 7.0 mi Calm Calm - N/A   Scattered Clouds
2:55 AM 73.8 °F - 73.6 °F 99% 30.03 in 7.0 mi Calm Calm - N/A   Scattered Clouds
3:35 AM 73.2 °F - 72.9 °F 99% 30.03 in 7.0 mi Calm Calm - N/A   Scattered Clouds
3:55 AM 74.1 °F - 73.8 °F 99% 30.03 in 7.0 mi Calm Calm - N/A   Mostly Cloudy
4:15 AM 74.8 °F - 74.5 °F 99% 30.03 in 7.0 mi Calm Calm - N/A   Mostly Cloudy
4:35 AM 73.4 °F - 73.4 °F 100% 30.03 in 5.0 mi Calm Calm - N/A   Mostly Cloudy
4:55 AM 73.0 °F - 72.7 °F 99% 30.03 in 5.0 mi Calm Calm - N/A   Scattered Clouds
5:15 AM 72.9 °F - 72.7 °F 99% 30.03 in 5.0 mi Calm Calm - N/A   Scattered Clouds
5:35 AM 72.9 °F - 72.7 °F 99% 30.04 in 4.0 mi Calm Calm - N/A   Scattered Clouds
5:55 AM 71.6 °F - 71.6 °F 100% 30.03 in 3.0 mi Calm Calm - N/A   Scattered Clouds
6:15 AM 72.5 °F - 72.0 °F 98% 30.03 in 3.0 mi SSE 3.5 mph - N/A   Scattered Clouds
6:55 AM 71.8 °F - 71.6 °F 99% 30.02 in 3.0 mi Calm Calm - N/A   Clear
7:15 AM 71.8 °F - 71.6 °F 99% 30.02 in 2.5 mi South 4.6 mph - N/A   Clear
7:35 AM 73.2 °F - 72.9 °F 99% 30.02 in 3.0 mi South 3.5 mph - N/A   Clear
7:55 AM 73.6 °F - 73.4 °F 99% 30.03 in 4.0 mi South 4.6 mph - N/A   Clear
8:15 AM 74.5 °F - 74.3 °F 99% 30.05 in 5.0 mi Calm Calm - N/A   Mostly Cloudy
8:35 AM 75.6 °F - 75.2 °F 99% 30.04 in 5.0 mi South 3.5 mph - N/A   Scattered Clouds
8:55 AM 77.7 °F - 77.2 °F 98% 30.06 in 10.0 mi South 4.6 mph - N/A   Clear
9:15 AM 79.9 °F - 76.8 °F 90% 30.05 in 10.0 mi South 6.9 mph - N/A   Clear
9:35 AM 81.9 °F 89.2 °F 76.1 °F 83% 30.05 in 10.0 mi SSW 5.8 mph - N/A   Clear
9:55 AM 83.3 °F 90.8 °F 75.2 °F 76% 30.05 in 10.0 mi SSW 6.9 mph - N/A   Clear
10:15 AM 84.6 °F 93.2 °F 75.4 °F 74% 30.05 in 10.0 mi SSW 6.9 mph - N/A   Clear
10:35 AM 85.8 °F 95.1 °F 75.4 °F 71% 30.05 in 10.0 mi WSW 9.2 mph - N/A   Clear
10:55 AM - - - N/A% 30.06 in 10.0 mi WSW 6.9 mph - N/A   Clear
11:15 AM - - - N/A% 30.06 in 10.0 mi SW 6.9 mph - N/A   Clear
11:35 AM - - - N/A% 30.06 in 10.0 mi SSW 6.9 mph - N/A   Scattered Clouds
11:55 AM 86.0 °F 95.5 °F 75.6 °F 71% 30.05 in 10.0 mi South 6.9 mph - N/A   Clear
12:15 PM 85.3 °F 94.6 °F 75.7 °F 73% 30.05 in 10.0 mi SW 5.8 mph - N/A   Scattered Clouds
12:35 PM 86.0 °F 96.0 °F 75.9 °F 72% 30.05 in 10.0 mi SW 6.9 mph - N/A   Clear
12:55 PM 86.4 °F 95.5 °F 75.2 °F 69% 30.05 in 10.0 mi SW 8.1 mph - N/A Thunderstorm Clear
1:15 PM 86.4 °F 96.0 °F 75.6 °F 70% 30.03 in 10.0 mi SSW 5.8 mph - N/A   Clear
1:35 PM 86.4 °F 96.9 °F 76.5 °F 72% 30.04 in 10.0 mi SSW 5.8 mph - N/A Thunderstorm Scattered Clouds
1:55 PM - - - N/A% 30.04 in 10.0 mi South 6.9 mph - N/A   Overcast
2:15 PM 85.6 °F 96.4 °F 77.0 °F 75% 30.03 in 10.0 mi West 3.5 mph - N/A Thunderstorm Thunderstorm
2:35 PM 85.8 °F 94.6 °F 74.8 °F 70% 30.03 in 10.0 mi SSE 6.9 mph - N/A Thunderstorm Thunderstorm
2:55 PM 70.5 °F - 67.5 °F 90% 30.11 in 1.0 mi North 23.0 mph 38.0 mph 0.30 in Rain , Thunderstorm Heavy Thunderstorms and Rain
3:15 PM 68.0 °F - 68.0 °F 100% 30.12 in 2.5 mi North 18.4 mph 28.8 mph 0.17 in Rain , Thunderstorm Light Thunderstorms and Rain
3:35 PM - - - N/A% 30.12 in 10.0 mi North 10.4 mph 20.7 mph 0.22 in Rain , Thunderstorm Light Thunderstorms and Rain
3:55 PM - - - N/A% 30.11 in 10.0 mi North 8.1 mph - 0.23 in Rain , Thunderstorm Rain
4:15 PM - - - N/A% 30.06 in 7.0 mi ENE 8.1 mph - 0.01 in Rain , Thunderstorm Rain
4:35 PM - - - N/A% 30.05 in 10.0 mi East 6.9 mph - 0.04 in Rain , Thunderstorm Light Thunderstorms and Rain
4:55 PM - - - N/A% 30.01 in 10.0 mi SSE 6.9 mph - 0.04 in   Clear
5:15 PM - - - N/A% 30.01 in 10.0 mi South 9.2 mph - N/A   Scattered Clouds
5:35 PM - - - N/A% 30.03 in 10.0 mi SSW 10.4 mph - N/A   Scattered Clouds
5:55 PM 72.1 °F - 70.9 °F 96% 30.00 in 10.0 mi SSE 12.7 mph - N/A   Scattered Clouds
6:15 PM 72.1 °F - 71.2 °F 97% 30.01 in 10.0 mi South 8.1 mph - N/A   Scattered Clouds
6:35 PM 72.1 °F - 71.8 °F 99% 29.99 in 10.0 mi SSE 8.1 mph - N/A   Mostly Cloudy
6:55 PM 72.9 °F - 71.4 °F 95% 29.98 in 10.0 mi SSE 5.8 mph - N/A   Scattered Clouds
7:15 PM 72.7 °F - 71.4 °F 96% 29.97 in 10.0 mi SE 3.5 mph - N/A   Clear
7:35 PM 72.7 °F - 72.5 °F 99% 29.97 in 10.0 mi SE 4.6 mph - N/A   Clear
7:55 PM 72.1 °F - 71.8 °F 99% 29.99 in 10.0 mi South 4.6 mph - N/A   Clear
8:15 PM 71.6 °F - 71.1 °F 98% 29.98 in 10.0 mi South 5.8 mph - N/A   Clear
8:35 PM 70.9 °F - 70.7 °F 99% 29.98 in 10.0 mi South 5.8 mph - N/A   Clear
8:55 PM 70.7 °F - 70.2 °F 98% 29.99 in 10.0 mi SSW 9.2 mph - N/A   Clear
9:15 PM 70.7 °F - 70.3 °F 99% 30.00 in 10.0 mi SW 5.8 mph - N/A   Clear
9:35 PM 70.3 °F - 70.0 °F 99% 30.00 in 10.0 mi Calm Calm - N/A   Clear
9:55 PM 69.8 °F - 69.8 °F 100% 30.00 in 10.0 mi SSW 3.5 mph - N/A   Clear
10:15 PM 69.8 °F - 69.6 °F 99% 30.01 in 10.0 mi Calm Calm - N/A   Clear
10:35 PM 69.8 °F - 69.3 °F 98% 30.01 in 10.0 mi SSW 3.5 mph - N/A   Clear
10:55 PM 69.6 °F - 69.3 °F 99% 30.02 in 10.0 mi Calm Calm - N/A   Clear
11:15 PM 69.3 °F - 68.9 °F 99% 30.02 in 10.0 mi Calm Calm - N/A   Clear
11:35 PM 68.7 °F - 68.4 °F 99% 30.02 in 10.0 mi Calm Calm - N/A   Scattered Clouds
11:55 PM 68.0 °F - 68.0 °F 100% 30.02 in 10.0 mi SSE 3.5 mph - N/A   Mostly Cloudy